Other Public Products
Issued by NWS Grand Forks, ND

Home | Current Version | Previous Version | Text Only | Print | Product List | Glossary Off
Versions: 1 2 3 4 5 6 7 8 9 10 11 12 13 14 15 16 17 18 19 20 21 22 23 24 25 26 27 28 29 30 31 32 33 34 35 36 37 38 39 40 41 42 43 44 45 46 47 48 49 50

040
FPUS83 KFGF 122131
OPUFGF
PRAIRIE TO PINES WEATHER ROUNDUP
NATIONAL WEATHER SERVICE EASTERN NORTH DAKOTA/GRAND FORKS ND
300 PM CST TUE DEC 12 2017

 **SATELLITE DATA USED TO AUGMENT SKY COVER AT AUTOMATED STATIONS**
 *****  WEATHER ACROSS EASTERN NORTH DAKOTA  *****

CITY           SKY/WX    TMP DP  RH WIND       PRES   REMARKS
GRAND FORKS    PTSUNNY   35  31  85 S12       29.73F
GRND FORKS AFB FAIR      39  29  68 SW8       29.72F
GRND FORKS NWS   N/A     34 N/A N/A S7          N/A
BUXTON           N/A     35  32  87 S9          N/A
DEVILS LAKE    FAIR      40  29  64 SW10      29.71F
FARGO          PTSUNNY   37  30  75 S9        29.79F
WAHPETON ARPT  FAIR      39  28  65 W13       29.81F
$$

 *****  WEATHER ACROSS CENTRAL AND WESTERN NORTH DAKOTA  *****

CITY           SKY/WX    TMP DP  RH WIND       PRES   REMARKS
JAMESTOWN      FAIR      42  29  59 W12       29.75F
BISMARCK       FAIR      53  28  38 W12       29.81F
MINOT          FAIR      50  23  34 SW12      29.71F
MINOT AFB      FAIR      49  25  38 W10       29.70F
GARRISON         N/A     50  25  37 W13       29.77F
WILLISTON      FAIR      47  27  45 S7        29.78F
DICKINSON      FAIR      55  24  30 W21G29    29.81F
HETTINGER      FAIR      58  20  22 W15       29.89F
$$

 *****  OTHER OBSERVATIONS NORTHEAST NORTH DAKOTA  *****

CITY           SKY/WX    TMP DP  RH WIND       PRES   REMARKS
WALHALLA       FAIR      39  30  70 S5        29.65F
LANGDON        FAIR      39  34  81 SW15      29.64F
CAVALIER       FAIR      34  28  80 S6        29.67F
GRAFTON        FAIR      34  30  86 S10       29.71F
CANDO          FAIR      43  27  52 W18G26    29.69F
FORT TOTTEN      N/A     43  27  52 SW7       29.95S
ROLLA          FAIR      39  27  60 SW16      29.63F
RUGBY          FAIR      45  27  49 W15       29.69F
 ***** THE ABOVE OBSERVATIONS ARE NON NWS ARE NOT QUALITY
        CONTROLLED AND MAY MIS-REPORT RAIN FOR SNOW...
$$

 *****  OTHER OBSERVATIONS SOUTHEAST NORTH DAKOTA *****

CITY           SKY/WX    TMP DP  RH WIND       PRES   REMARKS
COOPERSTOWN    FAIR      37  30  75 SW12      29.73F
VALLEY CITY    FAIR      37  32  81 SW8       29.77F
OAKES            N/A     43  28  56 SW12      29.80F
GWINNER          N/A     41  30  65 SW17      29.78F
SHEYENNE NWR     N/A     40  30  68 W12       29.95S
BUFFALO          N/A     37  28  68 SE13        N/A
WYNDMERE       NOT AVBL
 ***** THE ABOVE OBSERVATIONS ARE NON NWS ARE NOT QUALITY
       CONTROLLED AND MAY MIS-REPORT RAIN FOR SNOW...
$$

  *****  WEATHER ACROSS NORTHERN MINNESOTA  *****

CITY           SKY/WX    TMP DP  RH WIND       PRES   REMARKS
FLAG ISLAND    LGT SNOW  12  10  92 SE7       29.78F WCI   2
WARROAD        CLOUDY    16  12  86 SE10      29.77F WCI   3
ROSEAU         CLOUDY    19  16  86 SE9       29.74F WCI   9
HALLOCK        FAIR      28  25  86 SE13      29.70F WCI  18
THF RVR FALLS  CLOUDY    28  25  88 S12       29.76  WCI  18
HALSTAD        NOT AVBL
FOSSTON        CLOUDY    27  23  86 S12       29.77F WCI  16
BAUDETTE       LGT SNOW  16  13  88 SE8       29.77F FOG     WCI   5
WASKISH        LGT SNOW  16  12  86 SE8       29.80F WCI   5
CROOKSTON      CLOUDY    32  28  86 S13       29.75F WCI  22
$$
  *****  WEATHER ACROSS CENTRAL AND WEST MINNESOTA  *****

CITY           SKY/WX    TMP DP  RH WIND       PRES   REMARKS
BEMIDJI        CLOUDY    17  14  88 SE8       29.79F WCI   7
PARK RAPIDS    CLOUDY    21  18  88 SE8       29.81F WCI  11
WADENA         FAIR      28  23  80 S8        29.81F WCI  20
DETROIT LAKES  FAIR      32  28  86 SW8       29.80F WCI  25
MOORHEAD       FAIR      36  28  75 CALM      29.80F
FERGUS FALLS   PTSUNNY   37  30  75 SW3       29.84F
ELBOW LAKE     MOCLDY    38  31  74 SW14      29.83F
MORRIS MN      FAIR      43  30  61 SW10      29.84F
STAPLES        PTSUNNY   23  18  80 S8        29.83F WCI  14
WHEATON        FAIR      43  28  56 SW15      29.84F
$$
  *****  WEATHER ELSEWHERE ACROSS MINNESOTA  *****

CITY           SKY/WX    TMP DP  RH WIND       PRES   REMARKS
DULUTH         FLURRIES  11   5  77 S7        29.90F WCI   0
INTRNTL FALLS  HVY SNOW  12   7  80 SE12      29.83F VSB 1/4 WCI  -2
ELY            MOCLDY     9   0  66 CALM      29.87F
CLOQUET        LGT SNOW  12   7  79 S3        29.90F
BRAINERD       CLOUDY    17  12  80 S9        29.89F WCI   6
HIBBING        LGT SNOW  10   5  80 S6        29.86F WCI   0
ALEXANDRIA     PTSUNNY   30  26  85 S8        29.86F WCI  22
SAINT CLOUD    CLOUDY    21  15  78 S10       29.93F WCI  10
MINNEAPOLIS    CLOUDY    19  13  77 S8        29.98F WCI   9
$$

  *****  WEATHER ACROSS SOUTH DAKOTA  *****

CITY           SKY/WX    TMP DP  RH WIND       PRES   REMARKS
SIOUX FALLS    FAIR      41  30  65 W9        29.98F
BROOKINGS      FAIR      39  29  67 SW15      29.92F
WATERTOWN      FAIR      40  30  67 SW16      29.87F
HURON          FAIR      48  27  44 W8        29.93F
SISSETON         N/A     42  31  64 W21G28    29.81F
ABERDEEN       FAIR      47  27  45 SW16G23   29.85F
MITCHELL       FAIR      47  29  49 W13       29.97F
PIERRE         FAIR      55  27  34 W14       29.91F
MOBRIDGE       FAIR      53  28  38 W9        29.84F
RAPID CITY     FAIR      60  15  17 S6        29.99F
$$

  *****  SOME WEATHER IN NEARBY STATES *****

CITY           SKY/WX    TMP DP  RH WIND       PRES   REMARKS
GLASGOW MT     FAIR      52  16  24 W13       29.85F
GREAT FALLS MT FAIR      50   2  14 SW22      30.15R
CHEYENNE WY    FAIR      60  13  15 NW24      30.21F
SCOTTSBLUFF NE FAIR      65  16  15 W16G22    30.10F
OMAHA NE       FAIR      39  24  55 S5        30.11F
DES MOINES IA  FAIR      33  12  41 SW13      30.12F WCI  24
DAVENPORT IA   FAIR      27   3  35 NW12      30.12F WCI  17
CHICAGO IL     FAIR      22   7  52 W13G22    30.03S WCI  10
EAU CLAIRE WI  CLOUDY    14   2  58 SW10      30.02F WCI   1
LA CROSSE WI   CLOUDY    21   2  43 NW6       30.06F WCI  13
$$

  *****  SOME NATIONAL WEATHER *****

CITY           SKY/WX    TMP DP  RH WIND       PRES   REMARKS
LA GUARDIA NY  CLOUDY    45  34  65 W12       29.41F
RALEIGH NC     MOCLDY    50  27  40 W12G17    29.62S
ATLANTA GA     FAIR      48  29  47 W18G29    29.91F
NEW ORLEANS LA FAIR      62  36  37 NW13      30.12S
OKLAHOMA CITY  FAIR      48  26  42 NW8       30.29F
ALBUQUERQUE NM FAIR      51   3  14 S3        30.38F
SALT LAKE CITY LGT SNOW  27  24  89 N3        30.50F FOG
LOS ANGELES CA FAIR      78  23  13 W10       30.08F
BOISE ID       CLOUDY    24  21  88 NE6       30.61F FOG     WCI  17
SEATTLE WA     PTSUNNY   45  26  47 E3        30.44F
$$

*** WEATHER ACROSS MANITOBA...SASKATCHEWAN AND ONTARIO ***
                ***ONTARIO***

CITY           SKY/WX    TMP DP  RH WIND       PRES   REMARKS
GERALDTON      PTCLDY    -4 -11  71 VRB2      29.92F
THUNDER BAY    MOCLDY     7  -4  61 CALM      29.98F
SIOUX LOOKOUT  MOCLDY     1  -6  71 SE5       29.87F WCI  -8
TORONTO        FLURRIES  18   5  57 NW15G28   29.61R WCI   3
BIG TROUT LK   CLEAR     -8 -13  77 SW2       29.90F
PICKLE LAKE    PTCLDY    -4 -11  71 S6        29.86F WCI -16
DRYDEN         CLOUDY     5   1  85 S9        29.83F WCI  -9
KENORA         LGT SNOW  10   7  85 SE6       29.77F DRFTSNOWWCI   1
$$
                *** MANITOBA***

CITY           SKY/WX    TMP DP  RH WIND       PRES   REMARKS
BRANDON        PTSUNNY   36  28  75 W10       29.60F
DAUPHIN        CLEAR     34  27  75 W9        29.56F
ISLAND LAKE    CLOUDY     1  -2  85 SE9       29.78F WCI -14
PILOT MOUND      N/A     37  30  75 SW6         N/A
THE PAS        CLOUDY    19  18  93 S7        29.55F FOG     WCI  10
THOMPSON       LGT SNOW   5   1  85 E3        29.66F
WINNIPEG       MOCLDY    23  19  86 SE13      29.69F WCI  11
LYNN LAKE      FLURRIES  10   9  92 E5        29.53F WCI   2
CHURCHILL      PTCLDY   -15 -20  76 SW3       29.90S
GILLAM         MOCLDY    -6 -11  77 E3        29.83F
$$
                ***SASKATCHEWAN***

CITY           SKY/WX    TMP DP  RH WIND       PRES   REMARKS
ESTEVAN        CLOUDY    43  28  56 SW15      29.69F
KINDERSLEY     CLOUDY    39  30  70 NW9G20    29.87R
LLOYDMINSTER   CLOUDY    41  32  70 W20G26    29.79F
PRINCE ALBERT  CLOUDY    39  30  70 NW9G17    29.63F
REGINA         PTSUNNY   39  30  70 W9        29.68F
YORKTON        CLOUDY    39  28  65 W7        29.57F



USA.gov is the U.S. government's official web portal to all federal, state and local government web resources and services.